TimeEDT,TemperatureF,Dew PointF,Humidity,Sea Level PressureIn,VisibilityMPH,Wind Direction,Wind SpeedMPH,Gust SpeedMPH,PrecipitationIn,Events,Conditions,WindDirDegrees,DateUTC
12:53 AM,45.0,39.0,80,30.11,9.0,North,5.8,-,N/A,,Clear,10,2014-03-24 04:53:00
1:53 AM,43.0,39.0,86,30.13,8.0,North,5.8,-,N/A,,Clear,10,2014-03-24 05:53:00
2:38 AM,42.1,39.0,89,30.13,7.0,NNE,6.9,-,N/A,,Mostly Cloudy,20,2014-03-24 06:38:00
2:53 AM,43.0,39.0,86,30.14,7.0,North,9.2,-,N/A,,Mostly Cloudy,10,2014-03-24 06:53:00
3:17 AM,42.1,39.0,89,30.14,7.0,NNE,10.4,-,N/A,,Scattered Clouds,20,2014-03-24 07:17:00
3:53 AM,41.0,37.9,89,30.15,7.0,NNE,5.8,-,N/A,,Clear,20,2014-03-24 07:53:00
4:11 AM,42.1,37.9,85,30.15,7.0,NNE,4.6,-,N/A,,Mostly Cloudy,20,2014-03-24 08:11:00
4:19 AM,42.1,37.9,85,30.15,7.0,NNE,9.2,-,N/A,,Mostly Cloudy,30,2014-03-24 08:19:00
4:36 AM,42.1,37.0,82,30.15,7.0,NNE,8.1,-,N/A,,Partly Cloudy,20,2014-03-24 08:36:00
4:53 AM,41.0,37.0,86,30.16,8.0,NNE,8.1,-,N/A,,Clear,20,2014-03-24 08:53:00
5:53 AM,39.0,36.0,89,30.18,6.0,Calm,Calm,-,N/A,,Clear,0,2014-03-24 09:53:00
6:53 AM,37.9,36.0,93,30.21,6.0,North,3.5,-,N/A,,Clear,350,2014-03-24 10:53:00
7:53 AM,39.0,36.0,89,30.22,4.0,North,5.8,-,N/A,,Clear,10,2014-03-24 11:53:00
8:23 AM,41.0,37.0,86,30.23,5.0,NNE,6.9,-,N/A,,Partly Cloudy,20,2014-03-24 12:23:00
8:53 AM,43.0,35.1,74,30.25,8.0,NE,11.5,-,N/A,,Clear,40,2014-03-24 12:53:00
9:53 AM,46.0,34.0,63,30.25,10.0,NE,15.0,-,N/A,,Scattered Clouds,40,2014-03-24 13:53:00
10:53 AM,48.0,32.0,54,30.25,10.0,ENE,15.0,20.7,N/A,,Partly Cloudy,60,2014-03-24 14:53:00
11:53 AM,48.9,30.0,48,30.24,10.0,NE,10.4,-,N/A,,Mostly Cloudy,40,2014-03-24 15:53:00
12:53 PM,51.1,27.0,39,30.24,10.0,Variable,6.9,-,N/A,,Scattered Clouds,0,2014-03-24 16:53:00
1:53 PM,48.9,30.9,50,30.22,10.0,South,8.1,-,N/A,,Clear,180,2014-03-24 17:53:00
2:53 PM,48.9,32.0,52,30.19,10.0,SE,8.1,-,N/A,,Clear,140,2014-03-24 18:53:00
4:53 PM,48.0,30.9,52,30.16,10.0,SSE,8.1,-,N/A,,Clear,160,2014-03-24 20:53:00
5:53 PM,48.0,30.9,52,30.15,10.0,SE,8.1,-,N/A,,Clear,140,2014-03-24 21:53:00
6:53 PM,46.9,30.9,54,30.14,10.0,Variable,5.8,-,N/A,,Clear,0,2014-03-24 22:53:00
7:53 PM,46.9,30.9,54,30.14,10.0,ESE,6.9,-,N/A,,Unknown,110,2014-03-24 23:53:00
8:53 PM,46.9,30.0,52,30.13,10.0,SE,8.1,-,N/A,,Clear,130,2014-03-25 00:53:00
9:53 PM,46.9,30.0,52,30.14,10.0,ESE,6.9,-,N/A,,Clear,120,2014-03-25 01:53:00
10:53 PM,46.9,30.0,52,30.12,10.0,East,10.4,-,N/A,,Clear,100,2014-03-25 02:53:00
11:53 PM,48.0,30.9,52,30.11,10.0,East,9.2,-,N/A,,Clear,100,2014-03-25 03:53:00